2E0SQA Weather Reports


time (UTC)temp
F
wind
direction
speed
knots
gust
knots
rain 1hr
in
rain 24hr
in
rain mn
in
humidity
%
barometer
mb
20260508094805 57 49 0.0 0.0 0.00 0.01 0.00 80 1015.9
20260508094304 56 146 0.0 0.0 0.00 0.01 0.00 81 1015.9
20260508093803 56 174 0.0 0.9 0.00 0.01 0.00 81 1016.0
20260508093300 55 152 0.0 0.9 0.00 0.01 0.00 83 1016.0
20260508092800 55 146 0.0 0.0 0.00 0.01 0.00 83 1015.9
20260508092256 54 195 0.0 0.0 0.00 0.01 0.00 85 1015.9
20260508091755 54 135 0.0 0.0 0.00 0.01 0.00 85 1015.8
20260508091518 54 158 0.0 0.0 0.00 0.01 0.00 85 1015.8
20260508090754 53 188 0.0 0.0 0.00 0.01 0.00 85 1015.8
20260508090518 53 194 0.0 0.0 0.00 0.01 0.00 85 1015.8
20260508085750 53 149 0.0 0.0 0.00 0.01 0.00 85 1015.7
20260508085248 53 153 0.0 0.0 0.00 0.01 0.00 85 1015.7
20260508084746 53 212 0.0 0.0 0.00 0.01 0.00 86 1015.7
20260508084511 53 188 0.0 0.0 0.00 0.01 0.00 86 1015.6
20260508083745 53 176 0.0 0.0 0.00 0.01 0.00 86 1015.6
20260508083245 52 197 0.0 0.0 0.00 0.01 0.00 86 1015.5
20260508082742 52 122 0.0 0.0 0.00 0.01 0.00 85 1015.6
20260508082242 52 118 0.0 0.0 0.00 0.01 0.00 85 1015.4
20260508081739 52 126 0.0 0.0 0.00 0.01 0.00 85 1015.5
20260508081500 53 140 0.0 0.0 0.00 0.01 0.00 85 1015.4
20260508080739 53 122 0.0 0.0 0.00 0.01 0.00 85 1015.5
20260508080238 53 136 0.0 0.0 0.00 0.01 0.00 85 1015.5
20260508075953 53 117 0.0 0.0 0.00 0.01 0.00 85 1015.5
20260508075234 53 103 0.0 0.0 0.00 0.01 0.00 85 1015.5
20260508074736 53 143 0.0 0.0 0.00 0.01 0.00 85 1015.5
20260508074233 52 177 0.0 0.0 0.00 0.01 0.00 85 1015.4
20260508073733 52 173 0.0 0.0 0.00 0.01 0.00 86 1015.4
20260508073233 52 195 0.0 0.0 0.00 0.01 0.00 87 1015.5
20260508072732 51 198 0.0 0.0 0.00 0.01 0.00 87 1015.4
20260508072230 51 150 0.0 0.0 0.00 0.01 0.00 88 1015.3
20260508071725 51 174 0.0 0.0 0.00 0.01 0.00 88 1015.4
20260508071713 51 176 0.0 0.0 0.00 0.01 0.00 89 1015.3
20260508070725 51 162 0.0 0.0 0.00 0.01 0.00 89 1015.3
20260508070225 50 156 0.0 0.0 0.00 0.01 0.00 89 1015.3
20260508065724 50 154 0.0 0.0 0.00 0.01 0.00 89 1015.2
20260508065224 50 131 0.0 0.0 0.00 0.01 0.00 90 1015.2
20260508064722 50 131 0.0 0.0 0.00 0.01 0.00 90 1015.2
20260508064453 50 131 0.0 0.0 0.00 0.01 0.00 90 1015.2
20260508063719 49 129 0.0 0.0 0.00 0.01 0.00 91 1015.1
20260508063216 49 70 0.0 0.0 0.00 0.01 0.00 91 1015.0
20260508062715 49 67 0.0 0.0 0.00 0.01 0.00 91 1014.9
20260508062214 49 163 0.0 0.0 0.00 0.01 0.00 92 1014.8
20260508061715 49 136 0.0 0.0 0.00 0.01 0.00 92 1014.8
20260508061213 49 150 0.0 0.0 0.00 0.01 0.00 92 1014.7
20260508060711 48 156 0.0 0.0 0.00 0.01 0.00 92 1014.7
20260508060210 48 146 0.0 0.0 0.00 0.01 0.00 93 1014.6
20260508055934 48 147 0.0 0.0 0.00 0.01 0.00 93 1014.6
20260508055208 47 145 0.0 0.0 0.00 0.01 0.00 93 1014.6
20260508054704 47 146 0.0 0.0 0.00 0.01 0.00 93 1014.6
20260508054205 47 153 0.0 0.0 0.00 0.01 0.00 93 1014.6
20260508053657 47 129 0.0 0.0 0.00 0.01 0.00 93 1014.6
20260508053157 47 141 0.0 0.0 0.00 0.01 0.00 94 1014.6
20260508052655 47 141 0.0 0.0 0.00 0.01 0.00 94 1014.5
20260508052423 46 159 0.0 0.0 0.00 0.01 0.00 94 1014.5
20260508051657 0 0.0 0.0 0.00 0.01 0.00 1014.4
20260508051150 0 0.0 0.0 0.00 0.01 0.00 1014.4
20260508050650 0 0.0 0.0 0.00 0.01 0.00 1014.3
20260508050106 0 0.0 0.0 0.00 0.01 0.00 1014.3
20260508045549 0 0.0 0.0 0.00 0.01 0.00 1014.2
20260508044958 0 0.0 0.0 0.00 0.01 0.00 1014.3
20260508044449 0 0.0 0.0 0.00 0.01 0.00 1014.3
20260508043854 0 0.0 0.0 0.00 0.01 0.00 1014.2
20260508043351 0 0.0 0.0 0.00 0.01 0.00 1014.3
20260508042848 0 0.0 0.0 0.00 0.01 0.00 1014.3
20260508042259 0 0.0 0.0 0.00 0.01 0.00 1014.3
20260508041747 0 0.0 0.0 0.00 0.01 0.00 1014.3
20260508041247 0 0.0 0.0 0.00 0.01 0.00 1014.3
20260508040653 46 0.0 0.0 0.00 0.01 0.00 92 1014.2
20260508040141 46 143 0.0 0.0 0.00 0.01 0.00 92 1014.3
20260508035912 46 143 0.0 0.0 0.00 0.01 0.00 92 1014.3
20260508035139 46 155 0.0 0.0 0.00 0.01 0.00 93 1014.3
20260508034909 46 160 0.0 0.0 0.00 0.01 0.00 93 1014.2
20260508034134 46 127 0.0 0.0 0.00 0.01 0.00 93 1014.3
20260508033632 46 121 0.0 0.0 0.00 0.01 0.00 92 1014.3
20260508033134 46 193 0.0 0.0 0.00 0.01 0.00 92 1014.3
20260508032628 46 187 0.0 0.0 0.00 0.01 0.00 92 1014.3
20260508032123 46 187 0.0 0.0 0.00 0.01 0.00 92 1014.3
20260508031616 46 187 0.0 0.0 0.00 0.01 0.00 92 1014.3
20260508031109 46 187 0.0 0.0 0.00 0.01 0.00 92 1014.3
20260508030603 46 187 0.0 0.0 0.00 0.01 0.00 92 1014.3
20260508030106 46 187 0.0 0.0 0.00 0.01 0.00 92 1014.3
20260508025551 46 187 0.0 0.0 0.00 0.01 0.00 92 1014.3
20260508025045 46 184 0.0 0.0 0.00 0.01 0.00 92 1014.2
20260508024803 46 191 0.0 0.0 0.00 0.01 0.00 92 1014.2
20260508024034 46 191 0.0 0.0 0.00 0.01 0.00 91 1014.3
20260508023527 46 190 0.0 0.0 0.00 0.01 0.00 91 1014.3
20260508023023 46 191 0.0 0.0 0.00 0.01 0.00 91 1014.4
20260508022515 46 190 0.0 0.0 0.00 0.01 0.00 91 1014.3
20260508022009 46 191 0.0 0.0 0.00 0.01 0.00 91 1014.3
20260508021503 46 191 0.0 0.0 0.00 0.01 0.00 91 1014.2
20260508020956 47 195 0.0 0.0 0.00 0.01 0.00 91 1014.2
20260508020721 47 195 0.0 0.0 0.00 0.01 0.00 90 1014.1
20260508020212 47 195 0.0 0.0 0.00 0.01 0.00 90 1014.2
20260508015440 47 196 0.0 0.0 0.00 0.01 0.00 90 1014.2
20260508014939 47 195 0.0 0.0 0.00 0.01 0.00 90 1014.2
20260508014436 47 195 0.0 0.0 0.00 0.01 0.00 90 1014.2
20260508013935 47 195 0.0 0.0 0.00 0.01 0.00 90 1014.1
20260508013433 47 196 0.0 0.0 0.00 0.01 0.00 89 1014.2
20260508012933 47 195 0.0 0.0 0.00 0.01 0.00 90 1014.2
20260508012432 48 195 0.0 0.0 0.00 0.01 0.00 89 1014.1
20260508011930 48 186 0.0 0.0 0.00 0.01 0.00 89 1014.1
20260508011429 48 172 0.0 0.0 0.00 0.01 0.00 89 1014.1
20260508010926 48 150 0.0 0.0 0.00 0.01 0.00 89 1014.1
20260508010427 48 165 0.0 0.0 0.00 0.01 0.00 89 1014.1
20260508005930 48 164 0.0 0.0 0.00 0.01 0.00 89 1014.1
20260508005424 48 159 0.0 0.0 0.00 0.01 0.00 89 1014.1
20260508004924 48 115 0.0 0.0 0.00 0.01 0.00 89 1014.1
20260508004422 48 194 0.0 0.0 0.00 0.01 0.00 89 1014.1
20260508003925 48 187 0.0 0.0 0.00 0.01 0.00 89 1014.1
20260508003422 49 187 0.0 0.0 0.00 0.01 0.00 89 1014.1
20260508003146 49 186 0.0 0.0 0.00 0.01 0.00 89 1014.1
20260508002417 49 186 0.0 0.0 0.00 0.01 0.00 89 1014.2
20260508001910 49 186 0.0 0.0 0.00 0.01 0.00 88 1014.2
20260508001408 49 186 0.0 0.0 0.00 0.01 0.00 89 1014.2
20260508000908 49 186 0.0 0.0 0.00 0.01 0.00 88 1014.2
20260508000406 49 186 0.0 0.0 0.00 0.01 0.00 88 1014.3
20260507235906 49 186 0.0 0.0 0.00 0.01 0.00 88 1014.2
20260507235406 49 186 0.0 0.0 0.00 0.01 0.00 88 1014.2
20260507235353 49 186 0.0 0.0 0.00 0.01 0.00 88 1014.2
20260507234402 49 186 0.0 0.0 0.00 0.01 0.00 88 1014.2
20260507234126 49 186 0.0 0.0 0.00 0.01 0.00 87 1014.3
20260507233402 49 186 0.0 0.0 0.00 0.01 0.00 87 1014.2
20260507232900 49 194 0.0 0.0 0.00 0.01 0.00 87 1014.3
20260507232637 49 201 0.0 0.0 0.00 0.01 0.00 87 1014.3
20260507232117 49 201 0.0 0.0 0.00 0.01 0.00 87 1014.2
20260507231358 49 201 0.0 0.0 0.00 0.01 0.00 87 1014.2
20260507230858 49 201 0.0 0.0 0.00 0.01 0.00 87 1014.2
20260507230357 49 201 0.0 0.0 0.00 0.01 0.00 87 1014.1
20260507230114 49 201 0.0 0.0 0.00 0.01 0.01 87 1014.2
20260507225357 49 201 0.0 0.0 0.00 0.01 0.01 87 1014.2
20260507224855 49 201 0.0 0.0 0.00 0.01 0.01 87 1014.3
20260507224355 49 201 0.0 0.0 0.00 0.01 0.01 87 1014.2
20260507223854 49 201 0.0 0.0 0.00 0.01 0.01 86 1014.2
20260507223626 49 203 0.0 0.0 0.00 0.01 0.01 86 1014.1
20260507222853 50 203 0.0 0.0 0.00 0.01 0.01 86 1014.1
20260507222350 50 201 0.0 0.0 0.00 0.01 0.01 86 1014.1
20260507221852 50 200 0.0 0.0 0.00 0.01 0.01 86 1014.1
20260507221351 50 201 0.0 0.0 0.00 0.01 0.01 86 1014.0
20260507220850 50 203 0.0 0.0 0.00 0.01 0.01 86 1014.0
20260507220350 51 201 0.0 0.0 0.00 0.01 0.01 86 1013.9
20260507220117 51 203 0.0 0.0 0.00 0.01 0.01 86 1014.0
20260507215350 51 202 0.0 0.0 0.00 0.01 0.01 85 1014.0
20260507214851 51 203 0.0 0.0 0.00 0.01 0.01 85 1013.9
20260507214615 51 193 0.0 0.0 0.00 0.01 0.01 85 1014.0
20260507213845 51 187 0.0 0.0 0.00 0.01 0.01 85 1013.9
20260507213344 52 186 0.0 0.0 0.00 0.01 0.01 85 1014.0
20260507212844 52 187 0.0 0.0 0.00 0.01 0.01 85 1013.9
20260507212343 52 186 0.0 0.0 0.00 0.01 0.01 85 1013.9
20260507211841 52 187 0.0 0.0 0.00 0.01 0.01 85 1014.0
20260507211342 52 187 0.0 0.0 0.00 0.01 0.01 85 1013.9
20260507210839 52 186 0.0 0.0 0.00 0.01 0.01 85 1013.9
20260507210339 52 187 0.0 0.0 0.00 0.01 0.01 85 1013.9
20260507205836 52 187 0.0 0.0 0.00 0.01 0.01 85 1013.9
20260507205558 52 186 0.0 0.0 0.00 0.01 0.01 85 1013.8
20260507204834 52 188 0.0 0.0 0.00 0.01 0.01 86 1013.7
20260507204334 52 187 0.0 0.0 0.00 0.01 0.01 86 1013.7
20260507203834 52 188 0.0 0.0 0.00 0.01 0.01 86 1013.6
20260507203336 52 187 0.0 0.0 0.00 0.01 0.01 86 1013.6
20260507203048 52 187 0.0 0.0 0.00 0.01 0.01 86 1013.5
20260507202335 52 158 0.0 0.0 0.00 0.01 0.01 86 1013.4
20260507201833 52 154 0.0 0.0 0.00 0.01 0.01 86 1013.4
20260507201326 52 153 0.0 0.0 0.00 0.01 0.01 86 1013.3
20260507201052 52 146 0.0 0.0 0.00 0.01 0.01 86 1013.3
20260507200321 53 179 0.0 0.0 0.00 0.01 0.01 86 1013.2
20260507195821 53 183 0.0 0.0 0.00 0.01 0.01 86 1013.3
20260507195318 53 211 0.0 0.0 0.00 0.01 0.01 85 1013.3
20260507194818 53 212 0.0 0.0 0.00 0.01 0.01 85 1013.2
20260507194318 53 212 0.0 0.0 0.01 0.01 0.01 85 1013.2
20260507193816 53 240 0.0 0.0 0.01 0.01 0.01 85 1013.2
20260507193543 53 240 0.0 0.0 0.01 0.01 0.01 84 1013.2
20260507193046 53 240 0.0 0.0 0.01 0.01 0.01 84 1013.2
20260507192535 53 240 0.0 0.0 0.01 0.01 0.01 83 1013.2
20260507191814 53 240 0.0 0.0 0.01 0.01 0.01 82 1013.1
20260507191313 53 240 0.0 0.0 0.01 0.01 0.01 81 1013.1
20260507191036 54 240 0.0 0.0 0.01 0.01 0.01 80 1013.1
20260507190530 54 240 0.0 0.0 0.01 0.01 0.01 79 1013.1
20260507185810 54 240 0.0 0.0 0.01 0.01 0.01 78 1013.1
20260507185311 54 212 0.0 0.0 0.01 0.01 0.01 77 1013.1
20260507184804 55 214 0.0 0.0 0.01 0.01 0.01 76 1013.1
20260507184302 55 213 0.0 0.0 0.00 0.00 0.00 74 1013.1
20260507183803 55 189 0.0 0.0 0.00 0.00 0.00 73 1013.1
20260507183522 55 227 0.0 0.0 0.00 0.00 0.00 72 1013.1
20260507182803 55 235 0.0 0.0 0.00 0.00 0.00 72 1013.0
20260507182302 56 105 0.0 0.0 0.00 0.00 0.00 71 1012.9
20260507182021 56 245 0.0 0.0 0.00 0.00 0.00 71 1012.9
20260507181301 56 226 0.0 0.0 0.00 0.00 0.00 70 1012.9
20260507180800 56 248 0.0 0.0 0.00 0.00 0.00 69 1012.8
20260507180258 56 228 0.0 0.0 0.00 0.00 0.00 69 1012.8
20260507175758 57 215 0.0 2.6 0.00 0.00 0.00 67 1012.8
20260507175300 57 219 0.0 2.6 0.00 0.00 0.00 63 1012.8
20260507175023 58 266 0.0 0.0 0.00 0.00 0.00 61 1012.7
20260507174301 58 129 0.0 0.0 0.00 0.00 0.00 60 1012.7
20260507173759 58 270 0.0 0.0 0.00 0.00 0.00 60 1012.7
20260507173300 58 212 0.0 0.0 0.00 0.00 0.00 60 1012.7
20260507172759 58 179 0.0 0.0 0.00 0.00 0.00 60 1012.7
20260507172258 58 329 0.0 0.0 0.00 0.00 0.00 60 1012.7
20260507171759 58 78 0.0 0.0 0.00 0.00 0.00 60 1012.7
20260507171256 58 142 0.0 0.0 0.00 0.00 0.00 59 1012.7
20260507170754 58 195 0.0 0.0 0.00 0.00 0.00 59 1012.7
20260507170255 58 165 0.0 0.0 0.00 0.00 0.00 58 1012.7
20260507165755 58 295 0.0 0.0 0.00 0.00 0.00 58 1012.7
20260507165739 58 255 0.0 0.0 0.00 0.00 0.00 58 1012.7
20260507164755 58 135 0.0 0.0 0.00 0.00 0.00 58 1012.7
20260507164254 58 336 0.0 0.9 0.00 0.00 0.00 58 1012.7
20260507164038 59 331 0.0 0.9 0.00 0.00 0.00 57 1012.7
20260507163253 59 166 0.0 0.9 0.00 0.00 0.00 57 1012.7
20260507162753 59 132 0.0 0.9 0.00 0.00 0.00 58 1012.6
20260507162253 59 34 0.0 0.9 0.00 0.00 0.00 58 1012.5
20260507161753 59 195 0.0 0.9 0.00 0.00 0.00 58 1012.6
20260507161248 59 190 0.0 0.9 0.00 0.00 0.00 57 1012.6
20260507160749 59 151 0.0 0.0 0.00 0.00 0.00 57 1012.7
20260507160327 59 160 0.0 0.0 0.00 0.00 0.00 56 1012.7
20260507160249 59 163 0.0 0.0 0.00 0.00 0.00 56 1012.7
20260507155247 59 162 0.0 0.9 0.00 0.00 0.00 56 1012.7
20260507154746 59 181 0.0 0.9 0.00 0.00 0.00 57 1012.7
20260507154248 58 197 0.0 0.0 0.00 0.00 0.00 58 1012.8
20260507153747 58 190 0.0 0.0 0.00 0.00 0.00 59 1012.8
20260507153245 58 163 0.0 0.0 0.00 0.00 0.00 59 1012.8
20260507152747 58 190 0.0 0.9 0.00 0.00 0.00 58 1012.8
20260507152247 58 146 0.0 0.9 0.00 0.00 0.00 58 1012.9
20260507151748 58 169 0.0 0.9 0.00 0.00 0.00 58 1012.9
20260507151244 58 87 0.0 2.6 0.00 0.00 0.00 58 1012.9
20260507151025 59 160 0.0 2.6 0.00 0.00 0.00 57 1013.0
20260507150529 59 155 0.0 0.9 0.00 0.00 0.00 57 1013.0
20260507145742 59 190 0.0 0.9 0.00 0.00 0.00 56 1013.0
20260507145256 59 127 0.0 0.0 0.00 0.00 0.00 54 1013.0
20260507144740 60 200 0.0 0.0 0.00 0.00 0.00 53 1013.0
20260507144236 60 160 0.0 0.0 0.00 0.00 0.00 53 1013.0
20260507143736 60 153 0.0 0.9 0.00 0.00 0.00 53 1013.2
20260507143237 60 167 0.0 0.9 0.00 0.00 0.00 54 1013.2
20260507142737 60 136 0.0 0.9 0.00 0.00 0.00 54 1013.3
20260507142237 61 135 0.0 1.7 0.00 0.00 0.00 54 1013.4
20260507141735 61 117 0.0 1.7 0.00 0.00 0.00 55 1013.4
20260507141237 60 153 0.0 0.9 0.00 0.00 0.00 54 1013.4
20260507140733 60 170 0.0 0.9 0.00 0.00 0.00 54 1013.4
20260507140232 60 176 0.0 0.9 0.00 0.00 0.00 53 1013.4
20260507135732 60 128 0.0 0.9 0.00 0.00 0.00 54 1013.5
20260507135230 60 81 0.0 0.9 0.00 0.00 0.00 54 1013.6
20260507134731 60 190 0.0 0.9 0.00 0.00 0.00 56 1013.6
20260507134231 60 148 0.0 0.0 0.00 0.00 0.00 55 1013.6
20260507133728 60 188 0.0 0.0 0.00 0.00 0.00 57 1013.7
20260507133228 59 188 0.0 0.0 0.00 0.00 0.00 56 1013.7
20260507132951 59 200 0.0 0.9 0.00 0.00 0.00 56 1013.8
20260507132229 60 129 0.0 0.9 0.00 0.00 0.00 56 1013.7
20260507131728 60 153 0.0 0.0 0.00 0.00 0.00 57 1013.7
20260507131228 59 122 0.0 0.9 0.00 0.00 0.00 57 1013.8
20260507130726 59 98 0.0 0.9 0.00 0.00 0.00 58 1013.8
20260507130226 59 177 0.0 1.7 0.00 0.00 0.00 58 1013.8
20260507125726 59 249 0.0 1.7 0.00 0.00 0.00 58 1013.9
20260507125452 59 180 0.0 0.0 0.00 0.00 0.00 59 1014.0
20260507124726 58 190 0.0 0.0 0.00 0.00 0.00 60 1013.9
20260507124228 59 167 0.0 0.0 0.00 0.00 0.00 59 1014.0
20260507123728 59 283 0.0 0.0 0.00 0.00 0.00 61 1014.0
20260507123227 58 162 0.0 0.0 0.00 0.00 0.00 61 1014.0
20260507122724 58 145 0.0 0.0 0.00 0.00 0.00 61 1014.0
20260507122225 58 206 0.0 0.9 0.00 0.00 0.00 62 1014.0
20260507121725 58 146 0.0 0.9 0.00 0.00 0.00 63 1014.1
20260507121443 57 155 0.0 0.9 0.00 0.00 0.00 67 1014.1
20260507120725 57 158 0.0 0.9 0.00 0.00 0.00 66 1014.1
20260507120223 56 262 0.0 0.0 0.00 0.00 0.00 68 1014.2
20260507115723 56 127 0.0 0.0 0.00 0.00 0.00 70 1014.2
20260507115222 55 158 0.0 0.0 0.00 0.00 0.00 70 1014.2
20260507114722 54 211 0.0 0.0 0.00 0.00 0.00 72 1014.3
20260507114221 54 135 0.0 0.9 0.00 0.00 0.00 73 1014.2
20260507113720 53 152 0.0 0.9 0.00 0.00 0.00 73 1014.3
20260507113221 53 197 0.0 0.9 0.00 0.00 0.00 74 1014.4
20260507112714 53 146 0.0 0.9 0.00 0.00 0.00 74 1014.4
20260507112214 53 319 0.0 0.0 0.00 0.00 0.00 76 1014.5
20260507111714 52 191 0.0 0.0 0.00 0.00 0.00 77 1014.4
20260507111215 52 169 0.0 0.9 0.00 0.00 0.00 77 1014.4
20260507110715 51 259 0.0 0.9 0.00 0.00 0.00 78 1014.5
20260507110214 51 190 0.0 0.0 0.00 0.00 0.00 78 1014.5
20260507105714 51 199 0.0 0.0 0.00 0.00 0.00 79 1014.5
20260507105215 50 195 0.0 0.0 0.00 0.00 0.00 79 1014.6
20260507104714 50 187 0.0 0.0 0.00 0.00 0.00 79 1014.7
20260507104650 50 236 0.0 0.9 0.00 0.00 0.00 79 1014.7
20260507103711 50 205 0.0 0.9 0.00 0.00 0.00 80 1014.7
20260507103210 50 311 0.0 0.0 0.00 0.00 0.00 80 1014.7
20260507102714 49 108 0.0 0.9 0.00 0.00 0.00 81 1014.7
20260507102231 49 168 0.0 0.9 0.00 0.00 0.00 81 1014.7
20260507101710 49 138 0.0 0.0 0.00 0.00 0.00 82 1014.7
20260507101224 49 163 0.0 0.0 0.00 0.00 0.00 82 1014.7
20260507100712 49 122 0.0 0.0 0.00 0.00 0.00 82 1014.7
20260507100210 48 158 0.0 0.9 0.00 0.00 0.00 83 1014.7
20260507095933 48 158 0.0 0.9 0.00 0.00 0.00 83 1014.7
20260507095206 48 153 0.0 0.9 0.00 0.00 0.00 83 1014.7